DW2485 Weather Reports


Display with metric or nautical units.
time (UTC)temp
F
wind
direction
speed
MPH
gust
MPH
rain 1hr
in
rain 24hr
in
rain mn
in
humidity
%
barometer
mb
20260503021505 51 208 4.0 6.0 0.00 0.00 0.00 100 1018.9
20260503020505 52 206 3.0 6.0 0.00 0.00 0.00 100 1018.8
20260503020005 52 196 3.0 6.0 0.00 0.00 0.00 100 1018.8
20260503013505 54 215 2.0 3.0 0.00 0.00 0.00 100 1018.6
20260503013006 54 220 3.0 6.0 0.00 0.00 0.00 100 1018.7
20260503011506 55 224 5.0 8.0 0.00 0.00 0.00 100 1018.9
20260503004505 57 229 6.0 10.0 0.00 0.00 0.00 100 1018.8
20260503004005 58 227 5.0 10.0 0.00 0.00 0.00 100 1018.6
20260503002505 59 239 7.0 12.0 0.00 0.00 0.00 100 1018.8
20260503002005 59 235 8.0 14.0 0.00 0.00 0.00 100 1018.8
20260503001505 59 247 7.0 12.0 0.00 0.00 0.00 100 1018.9
20260502235506 60 250 10.0 13.0 0.00 0.00 0.00 100 1018.9
20260502233005 60 254 10.0 13.0 0.00 0.00 0.00 100 1019.3
20260502232504 60 231 7.0 10.0 0.00 0.00 0.00 100 1019.3
20260502232005 60 259 8.0 13.0 0.00 0.00 0.00 100 1019.4
20260502231005 60 236 9.0 16.0 0.00 0.00 0.00 100 1019.5
20260502225505 61 242 7.0 12.0 0.00 0.00 0.00 100 1019.6
20260502224505 61 255 9.0 16.0 0.00 0.00 0.00 100 1019.7
20260502223005 61 257 9.0 17.0 0.00 0.00 0.00 100 1019.5
20260502221505 60 207 8.0 13.0 0.00 0.00 0.00 100 1019.8
20260502220006 61 223 11.0 16.0 0.00 0.00 0.00 100 1019.9
20260502215005 61 244 9.0 15.0 0.00 0.00 0.00 100 1020.0
20260502214505 61 239 9.0 15.0 0.00 0.00 0.00 100 1019.9
20260502214005 61 273 11.0 15.0 0.00 0.00 0.00 100 1020.1
20260502213005 61 251 11.0 18.0 0.00 0.00 0.00 100 1020.1
20260502212505 61 285 9.0 12.0 0.00 0.00 0.00 100 1020.3
20260502212005 61 271 11.0 15.0 0.00 0.00 0.00 100 1020.3
20260502211506 60 244 8.0 13.0 0.00 0.00 0.00 100 1020.3
20260502210005 61 226 5.0 10.0 0.00 0.00 0.00 100 1020.5
20260502205505 61 244 8.0 15.0 0.00 0.00 0.00 100 1020.5
20260502204005 60 292 3.0 16.0 0.00 0.00 0.00 100 1020.9
20260502202005 60 283 10.0 16.0 0.00 0.00 0.00 100 1021.3
20260502201005 60 283 9.0 15.0 0.00 0.00 0.00 100 1021.3
20260502195005 60 264 7.0 12.0 0.00 0.00 0.00 100 1021.5
20260502193504 60 267 10.0 17.0 0.00 0.00 0.00 100 1021.7
20260502193005 59 256 6.0 14.0 0.00 0.00 0.00 100 1021.7
20260502192505 59 282 8.0 17.0 0.00 0.00 0.00 100 1021.9
20260502192005 58 243 7.0 12.0 0.00 0.00 0.00 100 1022.0
20260502190505 58 295 7.0 9.0 0.00 0.00 0.00 100 1022.0
20260502185504 59 266 7.0 16.0 0.00 0.00 0.00 100 1022.1
20260502185005 58 286 3.0 12.0 0.00 0.00 0.00 100 1022.2
20260502184005 61 323 9.0 13.0 0.00 0.00 0.00 100 1022.3
20260502183505 60 323 9.0 12.0 0.00 0.00 0.00 100 1022.3
20260502182505 58 154 3.0 5.0 0.00 0.00 0.00 100 1022.6
20260502182005 59 50 5.0 12.0 0.00 0.00 0.00 100 1022.7
20260502181505 59 269 9.0 16.0 0.00 0.00 0.00 100 1022.6
20260502181005 58 272 7.0 18.0 0.00 0.00 0.00 100 1022.6
20260502180505 58 171 8.0 12.0 0.00 0.00 0.00 100 1022.7
20260502162505 57 280 8.0 12.0 0.00 0.00 0.00 100 1023.4
20260502162005 56 193 3.0 7.0 0.00 0.00 0.00 100 1023.4
20260502150504 53 255 5.0 8.0 0.00 0.00 0.00 100 1023.9
20260502123004 36 340 1.0 2.0 0.00 0.00 0.00 100 1024.0
20260502121005 34 340 0.0 2.0 0.00 0.00 0.00 100 1024.0
20260502120504 33 340 0.0 0.0 0.00 0.00 0.00 100 1023.8
20260502115004 32 340 0.0 1.0 0.00 0.00 0.00 100 1023.7
20260502114004 32 340 0.0 0.0 0.00 0.00 0.00 100 1023.6
20260502113504 31 340 0.0 1.0 0.00 0.00 0.00 100 1023.5
20260502112504 32 340 0.0 2.0 0.00 0.00 0.00 100 1023.4
20260502112004 32 340 0.0 2.0 0.00 0.00 0.00 100 1023.3
20260502111504 31 340 1.0 1.0 0.00 0.00 0.00 100 1023.4
20260502111005 31 340 1.0 1.0 0.00 0.00 0.00 100 1023.4
20260502110004 32 340 1.0 2.0 0.00 0.00 0.00 100 1023.4
20260502105504 32 340 1.0 1.0 0.00 0.00 0.00 100 1023.3
20260502105004 32 340 2.0 2.0 0.00 0.00 0.00 100 1023.4
20260502104504 32 340 2.0 2.0 0.00 0.00 0.00 100 1023.2
20260502103004 32 340 1.0 2.0 0.00 0.00 0.00 100 1023.3
20260502102504 33 340 1.0 1.0 0.00 0.00 0.00 100 1023.2
20260502102004 33 340 1.0 1.0 0.00 0.00 0.00 100 1023.1
20260502101504 32 340 1.0 1.0 0.00 0.00 0.00 100 1023.1
20260502100504 34 340 1.0 1.0 0.00 0.00 0.00 100 1023.1
20260502091505 35 340 0.0 2.0 0.00 0.00 0.00 100 1022.9
20260502090504 35 340 0.0 1.0 0.00 0.00 0.00 100 1022.9
20260502071504 38 71 4.0 5.0 0.00 0.00 0.00 100 1023.1
20260502070504 39 95 5.0 8.0 0.00 0.00 0.00 100 1023.1
20260502070004 39 93 3.0 7.0 0.00 0.00 0.00 100 1023.2
20260502064503 39 87 5.0 7.0 0.00 0.00 0.00 100 1023.3
20260502063004 39 77 6.0 9.0 0.00 0.00 0.00 100 1023.4
20260502062503 40 78 6.0 9.0 0.00 0.00 0.00 100 1023.3
20260502061004 40 74 6.0 10.0 0.00 0.00 0.00 100 1023.3
20260502060004 40 74 6.0 10.0 0.00 0.00 0.00 100 1023.2
20260502054503 40 69 6.0 9.0 0.00 0.00 0.00 100 1023.1
20260502053503 40 76 5.0 9.0 0.00 0.00 0.00 100 1023.1
20260502053004 40 82 6.0 9.0 0.00 0.00 0.00 100 1023.1
20260502052004 40 66 5.0 6.0 0.00 0.00 0.00 100 1023.0
20260502051503 40 59 5.0 6.0 0.00 0.00 0.00 100 1023.1
20260502050504 40 57 3.0 5.0 0.00 0.00 0.00 100 1023.0
20260502050004 41 61 4.0 5.0 0.00 0.00 0.00 100 1023.0
20260502045504 41 63 5.0 8.0 0.00 0.00 0.00 100 1022.8
20260502045004 41 63 6.0 8.0 0.00 0.00 0.00 100 1022.7
20260502044504 42 56 6.0 8.0 0.00 0.00 0.00 100 1022.6
20260502044004 42 51 5.0 9.0 0.00 0.00 0.00 100 1022.6
20260502043004 41 35 5.0 8.0 0.00 0.00 0.00 100 1022.6
20260502041004 40 356 2.0 3.0 0.00 0.00 0.00 100 1022.2
20260502040506 40 355 2.0 3.0 0.00 0.00 0.00 100 1022.3
20260502035505 39 335 2.0 3.0 0.00 0.00 0.00 100 1022.2
20260502033506 41 348 2.0 3.0 0.00 0.00 0.00 100 1022.0
20260502033006 41 348 2.0 3.0 0.00 0.00 0.00 100 1022.0
20260502032506 41 348 2.0 2.0 0.00 0.00 0.00 100 1022.0
20260502032006 41 348 2.0 2.0 0.00 0.00 0.00 100 1022.0
20260502031506 41 348 1.0 1.0 0.00 0.00 0.00 100 1021.9
20260502024005 43 5 2.0 3.0 0.00 0.00 0.00 100 1021.6